When you browse on this site, cookies collect data to enhance your experience and personalize the content and advertising you see.
Visit our Privacy Policy to learn more. By continuing to use the site, you agree to this use of cookies and data.
  • In Hungary
  • List of Countries
  • For 7 days
  • Water Temperature
  • Satellite Maps
  • Weather Map
  • News
  • Weather Widgets
  • user-avatar
    Login

    Hourly Weather Bugojno

    Today, 12 December, Wednesday

    Time Temperature Precipitation Wind Pressure Humidity
    00:00 -1°C° 0 mm 1 mps 711 mmHg 78%
    01:00 -1°C° 0 mm 1 mps 711 mmHg 77%
    02:00 -1°C° 0 mm 1 mps 711 mmHg 75%
    03:00 -1°C° 0 mm 1 mps 711 mmHg 73%
    04:00 -1°C° 0 mm 1 mps 711 mmHg 71%
    05:00 -1°C° 0 mm 1 mps 711 mmHg 70%
    06:00 -1°C° 0 mm 1 mps 711 mmHg 68%
    07:00 -1°C° 0 mm 1 mps 711 mmHg 66%
    08:00 +1°C° 0 mm 1 mps 712 mmHg 62%
    09:00 +2°C° 0 mm 1 mps 712 mmHg 58%
    10:00 +4°C° 0 mm 1 mps 712 mmHg 53%
    11:00 +4°C° 0 mm 1 mps 712 mmHg 52%
    12:00 +5°C° 0 mm 1 mps 712 mmHg 51%
    13:00 +5°C° 0 mm 1 mps 712 mmHg 49%
    14:00 +4°C° 0 mm 1 mps 712 mmHg 55%
    15:00 +3°C° 0 mm 1 mps 712 mmHg 62%
    16:00 +2°C° 0 mm 1 mps 712 mmHg 68%
    17:00 0°C° 0 mm 0 mps 712 mmHg 70%
    18:00 -1°C° 0 mm 0 mps 712 mmHg 73%
    19:00 -1°C° 0 mm 0 mps 712 mmHg 75%
    20:00 -1°C° 0 mm 0 mps 712 mmHg 75%
    21:00 -1°C° 0 mm 1 mps 712 mmHg 75%
    22:00 -1°C° 0 mm 1 mps 713 mmHg 75%
    23:00 -1°C° 0 mm 1 mps 713 mmHg 75%

    Tomorrow, 13 December, Thursday

    Time Temperature Precipitation Wind Pressure Humidity
    00:00 -1°C° 0 mm 1 mps 713 mmHg 74%
    01:00 -1°C° 0 mm 1 mps 712 mmHg 74%
    02:00 -1°C° 0 mm 1 mps 712 mmHg 73%
    03:00 -1°C° 0 mm 1 mps 712 mmHg 73%
    04:00 -2°C° 0 mm 1 mps 712 mmHg 73%
    05:00 -2°C° 0 mm 1 mps 712 mmHg 73%
    06:00 -2°C° 0 mm 1 mps 711 mmHg 73%
    07:00 -2°C° 0 mm 1 mps 711 mmHg 73%
    08:00 0°C° 0 mm 1 mps 711 mmHg 69%
    09:00 +1°C° 0 mm 1 mps 711 mmHg 65%
    10:00 +2°C° 0 mm 1 mps 711 mmHg 60%
    11:00 +3°C° 0 mm 1 mps 711 mmHg 59%
    12:00 +4°C° 0 mm 1 mps 710 mmHg 57%
    13:00 +3°C° 0 mm 2 mps 710 mmHg 55%
    14:00 +3°C° 0 mm 1 mps 710 mmHg 60%
    15:00 +3°C° 0 mm 1 mps 709 mmHg 66%
    16:00 +2°C° 0 mm 1 mps 709 mmHg 71%
    17:00 +2°C° 0 mm 1 mps 709 mmHg 73%
    18:00 +1°C° 0 mm 1 mps 709 mmHg 75%
    19:00 +1°C° 0 mm 1 mps 709 mmHg 76%
    20:00 +1°C° 0.2 mm 1 mps 709 mmHg 79%
    21:00 +1°C° 0.2 mm 1 mps 709 mmHg 81%
    22:00 0°C° 0.2 mm 1 mps 709 mmHg 83%
    23:00 0°C° 0.5 mm 1 mps 709 mmHg 85%

    Day after tomorrow, 14 December, Friday

    Time Temperature Precipitation Wind Pressure Humidity
    00:00 0°C° 0.5 mm 1 mps 709 mmHg 87%
    01:00 0°C° 0.5 mm 1 mps 709 mmHg 88%
    02:00 0°C° 0.6 mm 1 mps 709 mmHg 89%
    03:00 0°C° 0.6 mm 1 mps 709 mmHg 89%
    04:00 0°C° 0.6 mm 1 mps 708 mmHg 90%
    05:00 0°C° 0.9 mm 1 mps 709 mmHg 91%
    06:00 0°C° 0.9 mm 1 mps 709 mmHg 91%
    07:00 0°C° 0.9 mm 1 mps 709 mmHg 92%
    08:00 0°C° 1 mm 1 mps 709 mmHg 92%
    09:00 +1°C° 1 mm 1 mps 709 mmHg 91%
    10:00 +1°C° 1 mm 1 mps 709 mmHg 91%
    11:00 -1°C° 1.1 mm 2 mps 709 mmHg 91%
    12:00 -1°C° 1.1 mm 2 mps 709 mmHg 91%
    13:00 -1°C° 1.1 mm 2 mps 708 mmHg 91%
    14:00 -1°C° 1.3 mm 2 mps 708 mmHg 92%
    15:00 -1°C° 1.3 mm 2 mps 708 mmHg 93%
    16:00 -1°C° 1.3 mm 2 mps 708 mmHg 94%
    17:00 -1°C° 1.8 mm 2 mps 708 mmHg 95%
    18:00 -2°C° 1.8 mm 2 mps 708 mmHg 95%
    19:00 -2°C° 1.8 mm 2 mps 708 mmHg 95%
    20:00 -2°C° 0.7 mm 2 mps 708 mmHg 95%
    21:00 -2°C° 0.7 mm 2 mps 708 mmHg 95%
    22:00 -2°C° 0.7 mm 2 mps 708 mmHg 95%
    23:00 -2°C° 0.7 mm 2 mps 708 mmHg 95%

    15 December, Saturday

    Time Temperature Precipitation Wind Pressure Humidity
    00:00 -2°C° 0.7 mm 2 mps 708 mmHg 95%
    01:00 0°C° 0.7 mm 1 mps 707 mmHg 95%
    02:00 0°C° 1.1 mm 1 mps 707 mmHg 95%
    03:00 0°C° 1.1 mm 1 mps 707 mmHg 96%
    04:00 0°C° 1.1 mm 1 mps 707 mmHg 96%
    05:00 -2°C° 1.6 mm 2 mps 707 mmHg 96%
    06:00 -2°C° 1.6 mm 2 mps 707 mmHg 96%
    07:00 -2°C° 1.6 mm 2 mps 707 mmHg 96%
    08:00 -2°C° 2.3 mm 2 mps 707 mmHg 96%
    09:00 -2°C° 2.3 mm 2 mps 707 mmHg 96%
    10:00 -2°C° 2.3 mm 2 mps 707 mmHg 96%
    11:00 -2°C° 2 mm 2 mps 707 mmHg 95%
    12:00 -2°C° 2 mm 2 mps 707 mmHg 95%
    13:00 -2°C° 2 mm 2 mps 707 mmHg 95%
    14:00 -2°C° 1.5 mm 2 mps 707 mmHg 95%
    15:00 -2°C° 1.5 mm 2 mps 707 mmHg 95%
    16:00 -2°C° 1.5 mm 2 mps 707 mmHg 95%
    17:00 -2°C° 1.2 mm 2 mps 707 mmHg 95%
    18:00 -3°C° 1.2 mm 2 mps 707 mmHg 95%
    19:00 -3°C° 1.2 mm 2 mps 708 mmHg 95%
    20:00 -3°C° 0.4 mm 2 mps 708 mmHg 95%
    21:00 -3°C° 0.4 mm 2 mps 708 mmHg 95%
    22:00 -3°C° 0.4 mm 2 mps 708 mmHg 95%
    23:00 -3°C° 0.9 mm 2 mps 709 mmHg 95%

    16 December, Sunday

    Time Temperature Precipitation Wind Pressure Humidity
    00:00 -3°C° 0.9 mm 2 mps 709 mmHg 96%
    01:00 -3°C° 0.9 mm 2 mps 709 mmHg 96%
    02:00 -3°C° 0.6 mm 2 mps 709 mmHg 96%
    03:00 -3°C° 0.6 mm 2 mps 709 mmHg 95%
    04:00 -3°C° 0.6 mm 2 mps 710 mmHg 95%
    05:00 -3°C° 0.1 mm 2 mps 710 mmHg 95%
    06:00 -3°C° 0.1 mm 2 mps 710 mmHg 94%
    07:00 -1°C° 0.1 mm 1 mps 711 mmHg 94%
    08:00 0°C° 0 mm 1 mps 711 mmHg 94%
    09:00 +1°C° 0 mm 1 mps 712 mmHg 94%
    10:00 +2°C° 0 mm 1 mps 712 mmHg 93%
    11:00 +2°C° 0 mm 1 mps 712 mmHg 94%
    12:00 +3°C° 0 mm 1 mps 712 mmHg 95%
    13:00 +4°C° 0 mm 1 mps 712 mmHg 96%
    14:00 +3°C° 0 mm 1 mps 712 mmHg 96%
    15:00 +3°C° 0 mm 1 mps 712 mmHg 96%
    16:00 +2°C° 0 mm 1 mps 712 mmHg 96%
    17:00 +2°C° 0 mm 1 mps 712 mmHg 94%
    18:00 +1°C° 0 mm 1 mps 712 mmHg 93%
    19:00 +1°C° 0 mm 1 mps 712 mmHg 92%
    20:00 +1°C° 0 mm 1 mps 713 mmHg 90%
    21:00 +2°C° 0 mm 1 mps 713 mmHg 88%
    22:00 +1°C° 0 mm 2 mps 713 mmHg 87%
    23:00 +1°C° 0 mm 2 mps 712 mmHg 86%

    17 December, Monday

    Time Temperature Precipitation Wind Pressure Humidity
    00:00 +1°C° 0 mm 2 mps 712 mmHg 86%
    01:00 +1°C° 0 mm 2 mps 712 mmHg 85%
    02:00 +2°C° 0 mm 2 mps 712 mmHg 86%
    03:00 +2°C° 0 mm 2 mps 712 mmHg 86%
    04:00 +2°C° 0 mm 2 mps 712 mmHg 87%
    05:00 +2°C° 0 mm 2 mps 712 mmHg 88%
    06:00 +2°C° 0 mm 2 mps 712 mmHg 88%
    07:00 +3°C° 0 mm 2 mps 712 mmHg 89%
    08:00 +3°C° 0 mm 2 mps 712 mmHg 92%
    09:00 +4°C° 0 mm 2 mps 712 mmHg 94%
    10:00 +4°C° 0 mm 2 mps 712 mmHg 97%
    11:00 +5°C° 0 mm 1 mps 712 mmHg 97%
    12:00 +5°C° 0 mm 1 mps 712 mmHg 97%
    13:00 +6°C° 0 mm 1 mps 712 mmHg 98%
    14:00 +5°C° 0 mm 1 mps 712 mmHg 97%
    15:00 +4°C° 0 mm 2 mps 712 mmHg 97%
    16:00 +4°C° 0 mm 2 mps 712 mmHg 97%
    17:00 +4°C° 0 mm 1 mps 712 mmHg 96%
    18:00 +4°C° 0 mm 1 mps 712 mmHg 96%
    19:00 +4°C° 0 mm 1 mps 712 mmHg 96%
    20:00 +4°C° 0.3 mm 1 mps 712 mmHg 96%
    21:00 +4°C° 0.3 mm 1 mps 713 mmHg 96%
    22:00 +5°C° 0.3 mm 1 mps 713 mmHg 96%
    23:00 +4°C° 0.4 mm 1 mps 713 mmHg 96%
    Show more